Los Angeles Downtown, CA

3:32 PM PDT on April 23, 2018 (GMT -0700)
Los Angeles Downtown

Weather History for KCQT - October, 2013

Change the Weather History Date:

Monday, October 28, 2013

  Actual Average Record
Temperature  
Mean Temperature 62 °F 67 °F  
Max Temperature 67 °F 77 °F 94 °F (1931)
Min Temperature 56 °F 56 °F 45 °F (1903)
Degree Days  
Heating Degree Days 3 1  
Month to date heating degree days 16 11  
Since 1 July heating degree days 16 13  
Cooling Degree Days 0 3  
Month to date cooling degree days 95 122  
Year to date cooling degree days 1162 1200  
Growing Degree Days 12 (Base 50)    
Moisture  
Dew Point 49 °F    
Average Humidity 68    
Maximum Humidity 87    
Minimum Humidity 48    
Precipitation  
Precipitation 0.02 in 0.03 in 0.56 in (1942)
Month to date precipitation 0.06 0.57  
Year to date precipitation 2.78 11.47  
Since 1 July precipitation 0.15  
Sea Level Pressure  
Sea Level Pressure 29.85 in    
Wind  
Wind Speed 3 mph (WSW)    
Max Wind Speed 9 mph    
Max Gust Speed 17 mph    
Visibility 10 miles    
Events Rain    
T = Trace of Precipitation, MM = Missing Value Source: NWS Daily Summary

Daily Weather History Graph

Daily Weather History Graph

Search for Another Location

Airport or City:

Astronomy

Oct. 28, 2013 Rise Set
Actual Time 7:09 AM PDT 6:03 PM PDT
Civil Twilight 6:43 AM PDT 6:29 PM PDT
Nautical Twilight 6:14 AM PDT 6:58 PM PDT
Astronomical Twilight 5:44 AM PDT 7:27 PM PDT
Moon 1:22 AM PDT (10/28) 2:34 PM PDT (10/28)
Length of Visible Light 11h 45m
Length of Day
10h 54m
Waning Crescent, 33% of the Moon is Illuminated
Oct 28
Waning Crescent
Nov 3
New
Nov 9
First Quarter
Nov 17
Full
Nov 25
Last Quarter

Hourly Weather History & Observations

Time (PDT) Temp. Dew Point Humidity Pressure Visibility Wind Dir Wind Speed Gust Speed Precip Events Conditions
12:47 AM 60.1 °F 54.0 °F 80% 29.84 in 10.0 mi Calm Calm - N/A   Overcast
1:47 AM 59.0 °F 55.0 °F 87% 29.83 in 8.0 mi South 3.5 mph - 0.00 in   Overcast
1:57 AM 60.8 °F 55.4 °F 82% 29.83 in 8.0 mi Calm Calm - N/A   Overcast
2:33 AM 59.0 °F 53.6 °F 82% 29.82 in 10.0 mi Calm Calm - N/A   Overcast
2:47 AM 59.0 °F 52.0 °F 78% 29.82 in 10.0 mi Calm Calm - N/A   Overcast
3:39 AM 57.2 °F 50.0 °F 77% 29.82 in 10.0 mi Variable 4.6 mph - N/A   Mostly Cloudy
3:47 AM 57.9 °F 50.0 °F 75% 29.81 in 10.0 mi Variable 5.8 mph - N/A   Scattered Clouds
4:47 AM 57.9 °F 48.9 °F 72% 29.82 in - West 3.5 mph - N/A   Unknown
5:32 AM 59.0 °F 48.2 °F 67% 29.83 in 10.0 mi Calm Calm - N/A   Overcast
5:42 AM 59.0 °F 48.2 °F 67% 29.83 in 10.0 mi Calm Calm - N/A   Overcast
5:47 AM 57.9 °F 48.0 °F 70% 29.83 in 10.0 mi Calm Calm - N/A   Overcast
6:39 AM 59.0 °F 46.4 °F 63% 29.83 in 10.0 mi Calm Calm - N/A   Mostly Cloudy
6:47 AM 59.0 °F 46.9 °F 64% 29.83 in 10.0 mi Calm Calm - N/A   Overcast
7:00 AM 59.0 °F 48.2 °F 67% 29.84 in 10.0 mi Calm Calm - N/A   Overcast
7:47 AM 59.0 °F 50.0 °F 72% 29.84 in 10.0 mi Variable 3.5 mph - N/A   Overcast
8:47 AM 60.1 °F 51.1 °F 72% 29.87 in 10.0 mi West 3.5 mph - N/A   Overcast
8:58 AM 60.8 °F 51.8 °F 72% 29.87 in 10.0 mi Variable 3.5 mph - N/A   Overcast
9:03 AM 60.8 °F 51.8 °F 72% 29.87 in 10.0 mi Calm Calm - N/A   Overcast
9:47 AM 63.0 °F 51.1 °F 65% 29.87 in 10.0 mi Calm Calm - N/A   Clear
10:47 AM 66.0 °F 48.0 °F 52% 29.88 in 10.0 mi Variable 5.8 mph - N/A   Mostly Cloudy
11:47 AM 64.9 °F 48.0 °F 54% 29.88 in 10.0 mi Variable 3.5 mph - N/A   Mostly Cloudy
12:47 PM 64.0 °F 50.0 °F 60% 29.86 in 10.0 mi Variable 3.5 mph - N/A   Mostly Cloudy
1:47 PM 66.0 °F 46.0 °F 48% 29.84 in 10.0 mi Variable 5.8 mph - N/A   Clear
2:47 PM 66.0 °F 48.0 °F 52% 29.84 in 10.0 mi Variable 4.6 mph - N/A   Clear
3:47 PM 64.0 °F 46.0 °F 52% 29.85 in 10.0 mi West 5.8 mph - N/A   Partly Cloudy
4:47 PM 63.0 °F 48.0 °F 58% 29.85 in 10.0 mi Variable 4.6 mph - N/A   Clear
5:47 PM 62.1 °F 48.0 °F 60% 29.86 in 10.0 mi Variable 3.5 mph - N/A   Overcast
6:47 PM 59.0 °F 51.1 °F 75% 29.87 in 10.0 mi Calm Calm - 0.02 in Rain Light Rain
7:47 PM 59.0 °F 48.0 °F 67% 29.88 in 10.0 mi Variable 3.5 mph - 0.00 in   Mostly Cloudy
8:47 PM 59.0 °F 48.0 °F 67% 29.90 in 10.0 mi Calm Calm - N/A   Overcast
9:47 PM 59.0 °F 48.0 °F 67% 29.91 in 10.0 mi Calm Calm - N/A   Overcast
10:47 PM 57.9 °F 46.9 °F 67% 29.92 in 10.0 mi Calm Calm - N/A   Overcast
11:47 PM 57.9 °F 46.9 °F 67% 29.93 in 10.0 mi Calm Calm - N/A   Mostly Cloudy